Location: New Plymouth
(39.0670°S, 174.0830°E)
Time: 08:20:16
(UTC+13:00)

NOAA 19 - Pass Details

Date: 25 August 2019
Orbit: 841 x 862 km, 99.2° (Epoch: 19 October)

Event Time Altitude Azimuth Distance (km) Brightness Sun altitude
Rises 04:09:59 0° 38° (NE) 3,390 8.6 -33.2°
Reaches altitude 10° 04:12:29 10° 46° (NE) 2,464 7.9 -32.7°
Maximum altitude 04:17:28 38° 112° (ESE) 1,289 6.5 -31.8°
Drops below altitude 10° 04:22:31 10° 178° (S) 2,497 7.8 -30.8°
Sets 04:25:03 0° 185° (S) 3,443 8.4 -30.3°
